Location: Unspecified
(44.4377°N, 88.0525°W)
Time: 19:11:49
(UTC-06:00)

CZ-3 Stage 3 - Visible Passes

Search period start: 08 February 2016 00:00
Search period end: 18 February 2016 00:00
Orbit: 369 x 34841 km, 30.4° (Epoch: 07 February)

Date Brightness Start Highest point End Pass type
(mag) Time Alt. Az. Time Alt. Az. Time Alt. Az.
08 Feb 9.0 21:16:48 10° SW 21:44:30 12° SW 22:34:27 10° SW visible
09 Feb 8.1 17:11:23 10° WSW 17:27:14 30° S 22:09:04 10° S visible
11 Feb 9.1 21:16:46 10° SW 21:37:54 11° SW 22:09:42 10° SW visible
12 Feb 8.2 17:03:54 10° WSW 17:19:51 28° SSW 21:48:41 10° S visible
15 Feb 8.3 16:56:20 10° WSW 17:12:22 27° SSW 21:27:06 10° S visible
